Time,TemperatureF,DewpointF,PressureIn,WindDirection,WindDirectionDegrees,WindSpeedMPH,WindSpeedGustMPH,Humidity,HourlyPrecipIn,Conditions,Clouds,dailyrainin,SolarRadiationWatts/m^2,SoftwareType,DateUTC
2013-09-11 00:01:00,57.0,44.0,-100.00,SSW,211,2.0,3.0,62,0.00,,,0.00,0.000000,,2013-09-11 06:01:00,
2013-09-11 00:22:00,57.0,44.0,-100.00,SSW,211,2.0,3.0,62,0.00,,,0.00,0.000000,,2013-09-11 06:22:00,
2013-09-11 00:33:00,57.0,44.0,-100.00,SSW,211,2.0,3.0,62,0.00,,,0.00,0.000000,,2013-09-11 06:33:00,
2013-09-11 00:42:00,57.0,44.0,-100.00,SSW,211,2.0,3.0,62,0.00,,,0.00,0.000000,,2013-09-11 06:42:00,
2013-09-11 00:52:00,57.0,44.0,-100.00,SSW,211,2.0,3.0,62,0.00,,,0.00,0.000000,,2013-09-11 06:52:00,
2013-09-11 01:01:00,56.0,45.0,-100.00,SW,222,2.0,3.0,66,0.00,,,0.00,0.000000,,2013-09-11 07:01:00,
2013-09-11 01:24:00,56.0,45.0,-100.00,SW,222,2.0,3.0,66,0.00,,,0.00,0.000000,,2013-09-11 07:24:00,
2013-09-11 01:32:00,56.0,45.0,-100.00,SW,222,2.0,3.0,66,0.00,,,0.00,0.000000,,2013-09-11 07:32:00,
2013-09-11 01:42:00,56.0,45.0,-100.00,SW,222,2.0,3.0,66,0.00,,,0.00,0.000000,,2013-09-11 07:42:00,
2013-09-11 01:52:00,56.0,45.0,-100.00,SW,222,2.0,3.0,66,0.00,,,0.00,0.000000,,2013-09-11 07:52:00,
2013-09-11 02:01:00,55.0,45.0,-100.00,SW,234,1.0,3.0,68,0.00,,,0.00,0.000000,,2013-09-11 08:01:00,
2013-09-11 02:22:00,55.0,45.0,-100.00,SW,234,1.0,3.0,68,0.00,,,0.00,0.000000,,2013-09-11 08:22:00,
2013-09-11 02:32:00,55.0,45.0,-100.00,SW,234,1.0,3.0,68,0.00,,,0.00,0.000000,,2013-09-11 08:32:00,
2013-09-11 02:42:00,55.0,45.0,-100.00,SW,234,1.0,3.0,68,0.00,,,0.00,0.000000,,2013-09-11 08:42:00,
2013-09-11 02:52:00,55.0,45.0,-100.00,SW,234,1.0,3.0,68,0.00,,,0.00,0.000000,,2013-09-11 08:52:00,
2013-09-11 03:01:00,52.0,43.0,-100.00,SSW,211,3.0,4.0,72,0.00,,,0.00,0.000000,,2013-09-11 09:01:00,
2013-09-11 03:22:00,52.0,43.0,-100.00,SSW,211,3.0,4.0,72,0.00,,,0.00,0.000000,,2013-09-11 09:22:00,
2013-09-11 03:33:00,52.0,43.0,-100.00,SSW,211,3.0,4.0,72,0.00,,,0.00,0.000000,,2013-09-11 09:33:00,
2013-09-11 03:43:00,52.0,43.0,-100.00,SSW,211,3.0,4.0,72,0.00,,,0.00,0.000000,,2013-09-11 09:43:00,
2013-09-11 03:53:00,52.0,43.0,-100.00,SSW,211,3.0,4.0,72,0.00,,,0.00,0.000000,,2013-09-11 09:53:00,
2013-09-11 04:01:00,51.0,45.0,-100.00,SW,220,1.0,3.0,79,0.00,,,0.00,0.000000,,2013-09-11 10:01:00,
2013-09-11 04:23:00,51.0,45.0,-100.00,SW,220,1.0,3.0,79,0.00,,,0.00,0.000000,,2013-09-11 10:23:00,
2013-09-11 04:33:00,51.0,45.0,-100.00,SW,220,1.0,3.0,79,0.00,,,0.00,0.000000,,2013-09-11 10:33:00,
2013-09-11 04:43:00,51.0,45.0,-100.00,SW,220,1.0,3.0,79,0.00,,,0.00,0.000000,,2013-09-11 10:43:00,
2013-09-11 04:53:00,51.0,45.0,-100.00,SW,220,1.0,3.0,79,0.00,,,0.00,0.000000,,2013-09-11 10:53:00,
2013-09-11 05:01:00,49.0,43.0,-100.00,SW,216,2.0,3.0,81,0.00,,,-99.99,0.000000,,2013-09-11 11:01:00,
2013-09-11 05:22:00,49.0,43.0,-100.00,SW,216,2.0,3.0,81,0.00,,,-99.99,0.000000,,2013-09-11 11:22:00,
2013-09-11 05:33:00,49.0,43.0,-100.00,SW,216,2.0,3.0,81,0.00,,,-99.99,0.000000,,2013-09-11 11:33:00,
2013-09-11 05:42:00,49.0,43.0,-100.00,SW,216,2.0,3.0,81,0.00,,,-99.99,0.000000,,2013-09-11 11:42:00,
2013-09-11 05:52:00,49.0,43.0,-100.00,SW,216,2.0,3.0,81,0.00,,,-99.99,0.000000,,2013-09-11 11:52:00,
2013-09-11 06:01:00,49.0,44.0,-100.00,SSW,212,2.0,3.0,83,0.00,,,-99.99,0.000000,,2013-09-11 12:01:00,
2013-09-11 06:42:00,49.0,44.0,-100.00,SSW,212,2.0,3.0,83,0.00,,,-99.99,0.000000,,2013-09-11 12:42:00,
2013-09-11 06:52:00,49.0,44.0,-100.00,SSW,212,2.0,3.0,83,0.00,,,-99.99,0.000000,,2013-09-11 12:52:00,
2013-09-11 07:01:00,47.0,43.0,-100.00,SW,224,2.0,3.0,86,0.00,,,-99.99,0.000000,,2013-09-11 13:01:00,
2013-09-11 07:42:00,47.0,43.0,-100.00,SW,224,2.0,3.0,86,0.00,,,-99.99,0.000000,,2013-09-11 13:42:00,
2013-09-11 07:52:00,47.0,43.0,-100.00,SW,224,2.0,3.0,86,0.00,,,-99.99,0.000000,,2013-09-11 13:52:00,
2013-09-11 08:01:00,50.0,46.0,-100.00,SSW,195,0.0,3.0,87,0.00,,,0.00,28.000000,,2013-09-11 14:01:00,
2013-09-11 08:22:00,50.0,46.0,-100.00,SSW,195,0.0,3.0,87,0.00,,,0.00,28.000000,,2013-09-11 14:22:00,
2013-09-11 08:32:00,50.0,46.0,-100.00,SSW,195,0.0,3.0,87,0.00,,,0.00,28.000000,,2013-09-11 14:32:00,
2013-09-11 08:42:00,50.0,46.0,-100.00,SSW,195,0.0,3.0,87,0.00,,,0.00,28.000000,,2013-09-11 14:42:00,
2013-09-11 08:52:00,50.0,46.0,-100.00,SSW,195,0.0,3.0,87,0.00,,,0.00,28.000000,,2013-09-11 14:52:00,
2013-09-11 09:01:00,57.0,49.0,-100.00,SE,141,2.0,4.0,74,0.00,,,0.00,135.000000,,2013-09-11 15:01:00,
2013-09-11 09:43:00,57.0,49.0,-100.00,SE,141,2.0,4.0,74,0.00,,,0.00,135.000000,,2013-09-11 15:43:00,
2013-09-11 09:54:00,57.0,49.0,-100.00,SE,141,2.0,4.0,74,0.00,,,0.00,135.000000,,2013-09-11 15:54:00,
2013-09-11 10:01:00,64.0,47.0,-100.00,East,89,3.0,5.0,55,0.00,,,0.00,378.000000,,2013-09-11 16:01:00,
2013-09-11 10:43:00,64.0,47.0,-100.00,East,89,3.0,5.0,55,0.00,,,0.00,378.000000,,2013-09-11 16:43:00,
2013-09-11 10:53:00,64.0,47.0,-100.00,East,89,3.0,5.0,55,0.00,,,0.00,378.000000,,2013-09-11 16:53:00,
2013-09-11 11:01:00,70.0,49.0,-100.00,East,87,3.0,5.0,47,0.00,,,0.00,585.000000,,2013-09-11 17:01:00,
2013-09-11 11:43:00,70.0,49.0,-100.00,East,87,3.0,5.0,47,0.00,,,0.00,585.000000,,2013-09-11 17:43:00,
2013-09-11 11:52:00,70.0,49.0,-100.00,East,87,3.0,5.0,47,0.00,,,0.00,585.000000,,2013-09-11 17:52:00,
2013-09-11 12:01:00,77.0,50.0,-100.00,NNE,33,4.0,7.0,39,0.00,,,0.00,727.000000,,2013-09-11 18:01:00,
2013-09-11 12:42:00,77.0,50.0,-100.00,NNE,33,4.0,7.0,39,0.00,,,0.00,727.000000,,2013-09-11 18:42:00,
2013-09-11 12:52:00,77.0,50.0,-100.00,NNE,33,4.0,7.0,39,0.00,,,0.00,727.000000,,2013-09-11 18:52:00,
2013-09-11 13:01:00,83.0,49.0,-100.00,NNE,15,4.0,8.0,31,0.00,,,0.00,821.000000,,2013-09-11 19:01:00,
2013-09-11 13:42:00,83.0,49.0,-100.00,NNE,15,4.0,8.0,31,0.00,,,0.00,821.000000,,2013-09-11 19:42:00,
2013-09-11 13:53:00,83.0,49.0,-100.00,NNE,15,4.0,8.0,31,0.00,,,0.00,821.000000,,2013-09-11 19:53:00,
2013-09-11 14:01:00,88.0,44.0,-100.00,ENE,72,5.0,11.0,22,0.00,,,0.00,858.000000,,2013-09-11 20:01:00,
2013-09-11 14:22:00,88.0,44.0,-100.00,ENE,72,5.0,11.0,22,0.00,,,0.00,858.000000,,2013-09-11 20:22:00,
2013-09-11 14:32:00,88.0,44.0,-100.00,ENE,72,5.0,11.0,22,0.00,,,0.00,858.000000,,2013-09-11 20:32:00,
2013-09-11 14:42:00,88.0,44.0,-100.00,ENE,72,5.0,11.0,22,0.00,,,0.00,858.000000,,2013-09-11 20:42:00,
2013-09-11 14:52:00,88.0,44.0,-100.00,ENE,72,5.0,11.0,22,0.00,,,0.00,858.000000,,2013-09-11 20:52:00,
2013-09-11 15:01:00,90.0,43.0,-100.00,NE,53,4.0,11.0,20,0.00,,,0.00,829.000000,,2013-09-11 21:01:00,
2013-09-11 15:44:00,90.0,43.0,-100.00,NE,53,4.0,11.0,20,0.00,,,0.00,829.000000,,2013-09-11 21:44:00,
2013-09-11 15:54:00,90.0,43.0,-100.00,NE,53,4.0,11.0,20,0.00,,,0.00,829.000000,,2013-09-11 21:54:00,
2013-09-11 16:01:00,91.0,43.0,-100.00,ENE,72,5.0,10.0,19,0.00,,,0.00,740.000000,,2013-09-11 22:01:00,
2013-09-11 16:43:00,91.0,43.0,-100.00,ENE,72,5.0,10.0,19,0.00,,,0.00,740.000000,,2013-09-11 22:43:00,
2013-09-11 16:54:00,91.0,43.0,-100.00,ENE,72,5.0,10.0,19,0.00,,,0.00,740.000000,,2013-09-11 22:54:00,
2013-09-11 17:01:00,91.0,42.0,-100.00,ENE,58,5.0,11.0,18,0.00,,,0.00,599.000000,,2013-09-11 23:01:00,
2013-09-11 17:42:00,91.0,42.0,-100.00,ENE,58,5.0,11.0,18,0.00,,,0.00,599.000000,,2013-09-11 23:42:00,
2013-09-11 17:53:00,91.0,42.0,-100.00,ENE,58,5.0,11.0,18,0.00,,,0.00,599.000000,,2013-09-11 23:53:00,
2013-09-11 18:01:00,86.0,39.0,-100.00,NE,34,5.0,14.0,19,0.00,,,0.00,326.000000,,2013-09-12 00:01:00,
2013-09-11 18:22:00,86.0,39.0,-100.00,NE,34,5.0,14.0,19,0.00,,,0.00,326.000000,,2013-09-12 00:22:00,
2013-09-11 18:32:00,86.0,39.0,-100.00,NE,34,5.0,14.0,19,0.00,,,0.00,326.000000,,2013-09-12 00:32:00,
2013-09-11 18:42:00,86.0,39.0,-100.00,NE,34,5.0,14.0,19,0.00,,,0.00,326.000000,,2013-09-12 00:42:00,
2013-09-11 18:52:00,86.0,39.0,-100.00,NE,34,5.0,14.0,19,0.00,,,0.00,326.000000,,2013-09-12 00:52:00,
2013-09-11 19:01:00,81.0,39.0,-100.00,North,356,4.0,8.0,22,0.00,,,0.00,29.000000,,2013-09-12 01:01:00,
2013-09-11 19:23:00,81.0,39.0,-100.00,North,356,4.0,8.0,22,0.00,,,0.00,29.000000,,2013-09-12 01:23:00,
2013-09-11 19:32:00,81.0,39.0,-100.00,North,356,4.0,8.0,22,0.00,,,0.00,29.000000,,2013-09-12 01:32:00,
2013-09-11 19:42:00,81.0,39.0,-100.00,North,356,4.0,8.0,22,0.00,,,0.00,29.000000,,2013-09-12 01:42:00,
2013-09-11 19:52:00,81.0,39.0,-100.00,North,356,4.0,8.0,22,0.00,,,0.00,29.000000,,2013-09-12 01:52:00,
2013-09-11 20:01:00,78.0,39.0,-100.00,NW,324,4.0,9.0,25,0.00,,,0.00,11.000000,,2013-09-12 02:01:00,
2013-09-11 20:52:00,78.0,39.0,-100.00,NW,324,4.0,9.0,25,0.00,,,0.00,11.000000,,2013-09-12 02:52:00,
2013-09-11 21:01:00,75.0,41.0,-100.00,NW,311,3.0,7.0,29,0.00,,,0.00,0.000000,,2013-09-12 03:01:00,
2013-09-11 21:45:00,75.0,41.0,-100.00,NW,311,3.0,7.0,29,0.00,,,0.00,0.000000,,2013-09-12 03:45:00,
2013-09-11 21:55:00,75.0,41.0,-100.00,NW,311,3.0,7.0,29,0.00,,,0.00,0.000000,,2013-09-12 03:55:00,
2013-09-11 22:01:00,76.0,41.0,-100.00,NW,312,5.0,15.0,29,0.00,,,0.00,0.000000,,2013-09-12 04:01:00,
2013-09-11 22:24:00,76.0,41.0,-100.00,NW,312,5.0,15.0,29,0.00,,,0.00,0.000000,,2013-09-12 04:24:00,
2013-09-11 22:34:00,76.0,41.0,-100.00,NW,312,5.0,15.0,29,0.00,,,0.00,0.000000,,2013-09-12 04:34:00,
2013-09-11 22:44:00,76.0,41.0,-100.00,NW,312,5.0,15.0,29,0.00,,,0.00,0.000000,,2013-09-12 04:44:00,
2013-09-11 22:54:00,76.0,41.0,-100.00,NW,312,5.0,15.0,29,0.00,,,0.00,0.000000,,2013-09-12 04:54:00,
2013-09-11 23:01:00,74.0,41.0,-100.00,NNW,347,4.0,11.0,31,0.00,,,0.00,0.000000,,2013-09-12 05:01:00,
2013-09-11 23:43:00,74.0,41.0,-100.00,NNW,347,4.0,11.0,31,0.00,,,0.00,0.000000,,2013-09-12 05:43:00,
2013-09-11 23:53:00,74.0,41.0,-100.00,NNW,347,4.0,11.0,31,0.00,,,0.00,0.000000,,2013-09-12 05:53:00,